Tracking 29892 objects as of 21-Nov-2024
HD Live streaming from Space Station
objects crossing your sky now

ONEWEB-0691

Track ONEWEB-0691 now!
10-day predictions
ONEWEB-0691 is classified as:


NORAD ID: 61599
Int'l Code: 2024-188F
Perigee: 622.7 km
Apogee: 632.4 km
Inclination: 86.6 °
Period: 97.1 minutes
Semi major axis: 6998 km
RCS: Unknown
Launch date: October 20, 2024
Source: United States (US)
Launch site: AIR FORCE WESTERN TEST RANGE (AFWTR)
Your satellite tracking list
Your tracking list is empty




NASA's NSSDC Master Catalog

Two Line Element Set (TLE):
1 61599U 24188F   24325.96285216  .00002806  00000-0  34363-3 0  9996
2 61599  86.5803 156.8857 0006951 106.0109 254.1880 14.82830756  5940
Source of the keplerian elements: AFSPC